Temp
14 14 14 14 13 13 13 13 12 11 11 11 11 10 9 9 10 10 9 8 8 7 7 7 7 7 7 7 7 7 7 7 7 7 7 7 7 7 7 7 6 6 6 6 6 6 6 6 6
14 14 13 13 13 13 13 13 13 12 12 11 11 11 10 11 10 9 8 8 7 7 7 7 7 7 7 7 7 7 7 7 7 7 7 7 7 7 6 6 6 6 6 6 6 6 6 6 6
14 14 13 13 13 14 14 14 13 12 13 12 11 11 11 11 10 9 9 8 8 7 7 7 7 7 7 7 7 7 7 7 7 7 6 6 6 6 6 6 6 6 6 6 6 5 5 5 5
14 14 13 13 13 14 13 14 13 13 12 11 12 11 11 12 10 9 9 8 7 7 7 7 6 6 6 6 6 6 7 7 7 6 6 6 6 6 6 6 6 6 6 5 5 5 5 5 5
14 13 13 13 14 13 13 13 14 13 12 12 12 11 12 12 10 9 8 8 7 7 6 6 6 6 6 6 6 6 6 6 6 6 6 5 5 5 5 5 5 5 5 5 5 5 5 5 4
13 13 13 13 13 13 12 13 13 13 12 12 11 11 11 11 10 9 8 8 7 7 6 6 6 6 6 6 6 6 5 5 5 5 5 4 4 4 4 4 4 4 4 4 4 4 4 4 4
13 13 13 12 13 14 13 13 13 13 12 11 11 11 11 11 11 10 9 8 7 6 6 6 5 6 6 5 5 6 5 5 5 4 4 4 4 4 4 4 4 4 4 4 4 4 4 4 3
13 13 13 13 13 13 12 13 13 13 11 11 11 11 11 11 11 10 9 8 7 7 6 6 5 6 5 6 5 5 5 5 4 4 3 3 3 3 3 3 3 3 3 3 3 3 3 3 2
13 13 14 14 14 13 13 13 13 13 11 12 11 11 11 11 11 10 10 8 7 6 6 6 5 6 6 5 5 5 5 4 3 3 3 3 3 2 2 2 2 2 2 2 2 2 2 2 1
13 13 14 14 14 14 13 14 14 13 12 12 11 11 11 10 10 10 10 9 7 7 6 6 5 6 6 5 5 5 4 3 3 3 2 2 2 2 2 2 2 1 1 1 1 1 1 0 0
13 14 14 14 14 14 14 14 13 13 12 12 12 11 11 10 10 10 10 9 8 7 7 6 6 6 6 5 5 4 3 3 2 2 2 2 2 1 1 1 1 1 0 -0 -1 -1 -1 -1 -2
13 14 14 14 14 14 14 13 14 13 13 12 12 11 11 11 11 10 9 9 8 7 7 6 6 6 5 5 4 3 3 2 2 1 1 1 1 1 1 1 -0 -0 -1 -1 -2 -2 -2 -3 -3
14 14 14 14 14 14 13 13 14 14 13 12 12 11 11 11 10 10 10 9 8 7 6 6 5 5 4 4 4 3 2 1 1 1 1 1 1 1 0 -0 -1 -1 -2 -2 -3 -3 -3 -4 -4
14 14 13 14 14 13 13 13 14 14 13 13 12 11 11 11 11 10 9 8 7 7 6 5 5 4 4 3 3 2 1 1 1 1 1 0 0 -0 -1 -1 -2 -2 -3 -3 -3 -4 -4 -5 -5
13 13 13 13 13 13 13 12 14 13 13 13 12 11 11 11 11 10 9 8 7 6 5 4 3 3 3 2 2 1 1 0 0 0 -0 -0 -1 -1 -1 -2 -3 -3 -4 -4 -5 -5 -6 -6 -7
13 13 13 13 13 12 12 13 14 13 13 12 12 12 11 11 10 10 9 8 6 5 4 3 3 3 2 2 1 1 0 -0 -0 -0 -1 -1 -1 -2 -2 -3 -4 -4 -5 -5 -6 -6 -6 -7 -7
12 13 13 13 13 12 12 13 13 13 13 12 12 12 11 11 10 10 9 8 6 5 4 3 2 2 1 1 1 0 -1 -1 -1 -1 -1 -1 -2 -3 -4 -4 -5 -5 -6 -6 -7 -7 -7 -7 -8
13 13 13 13 13 13 12 13 13 13 12 12 12 12 11 11 10 9 8 7 6 5 4 3 2 1 1 1 1 -1 -1 -1 -1 -1 -1 -2 -3 -3 -4 -5 -6 -6 -7 -7 -7 -7 -8 -8 -8
12 12 12 13 13 12 13 13 13 13 12 12 12 12 11 11 9 8 7 7 6 5 4 2 2 1 1 1 -0 -1 -1 -2 -2 -2 -2 -2 -3 -4 -5 -6 -6 -7 -7 -8 -8 -8 -8 -9 -9
11 12 12 12 13 13 13 13 13 12 12 12 12 11 11 10 9 8 7 7 6 5 4 2 2 1 0 0 -1 -2 -2 -2 -2 -2 -2 -3 -5 -5 -6 -7 -7 -8 -8 -8 -8 -8 -9 -10 -10
11 12 12 12 13 13 12 12 12 12 12 12 12 11 11 10 9 7 6 6 5 5 3 2 1 0 -0 -0 -1 -2 -2 -3 -3 -3 -4 -5 -5 -6 -7 -7 -8 -8 -8 -8 -9 -9 -10 -10 -11
12 12 12 12 12 12 11 10 12 12 12 12 11 10 10 10 9 7 6 6 5 4 3 2 1 -0 -0 -1 -2 -3 -3 -3 -4 -4 -4 -5 -6 -7 -8 -8 -8 -8 -9 -9 -10 -10 -11 -11 -11
12 12 12 12 11 11 11 10 12 12 12 12 11 12 11 11 8 6 6 6 5 3 2 1 0 -0 -1 -2 -3 -3 -4 -4 -4 -4 -5 -6 -7 -7 -8 -8 -8 -9 -9 -10 -11 -11 -11 -11 -12
12 12 12 11 11 9 11 10 11 11 12 11 11 11 11 11 8 7 6 5 4 3 1 0 -0 -0 -1 -2 -3 -4 -4 -4 -4 -5 -6 -7 -7 -8 -8 -9 -8 -9 -10 -11 -11 -11 -11 -12 -13
11 11 10 9 8 6 11 10 11 11 11 11 11 10 10 10 9 7 6 5 4 2 1 0 0 -1 -2 -3 -4 -4 -5 -4 -5 -6 -7 -7 -8 -8 -8 -8 -9 -10 -11 -11 -11 -11 -12 -13 -13
11 11 11 8 6 7 11 10 12 11 11 10 10 10 10 9 9 7 5 4 3 1 1 0 -1 -1 -3 -4 -4 -5 -5 -5 -6 -7 -7 -8 -8 -8 -9 -9 -10 -11 -11 -11 -12 -12 -13 -13 -13
11 11 11 10 9 7 9 10 10 10 10 10 10 9 9 9 7 6 4 3 2 1 0 -1 -1 -2 -4 -4 -5 -5 -5 -6 -7 -7 -8 -8 -8 -9 -9 -9 -11 -11 -11 -12 -12 -12 -13 -13 -14
11 11 10 10 7 7 8 9 9 9 9 9 9 9 8 7 5 4 4 2 2 1 -1 -2 -2 -4 -4 -5 -5 -5 -6 -7 -7 -8 -8 -8 -9 -9 -9 -10 -11 -11 -12 -12 -12 -13 -13 -14 -14
10 9 9 9 9 5 3 8 8 8 9 9 9 8 6 5 4 4 3 2 0 -0 -1 -2 -3 -4 -5 -6 -6 -6 -7 -7 -8 -8 -8 -9 -9 -9 -10 -10 -11 -11 -12 -12 -12 -13 -14 -14 -14
9 8 8 8 8 8 7 7 8 8 8 8 7 6 5 4 4 2 1 1 -0 -1 -2 -3 -4 -5 -6 -6 -6 -6 -7 -8 -8 -8 -9 -9 -9 -10 -10 -11 -11 -12 -12 -12 -13 -13 -14 -14 -14
Height
3181 3183 3185 3184 3188 3183 3180 3181 3180 3178 3177 3174 3172 3172 3171 3169 3170 3173 3168 3166 3166 3166 3167 3168 3168 3169 3169 3167 3166 3165 3163 3160 3157 3153 3150 3149 3146 3142 3138 3135 3132 3128 3125 3122 3120 3117 3115 3113 3110
3182 3184 3185 3184 3185 3182 3181 3180 3179 3179 3178 3177 3175 3173 3172 3170 3168 3168 3166 3164 3164 3165 3166 3167 3168 3168 3167 3166 3164 3163 3160 3157 3153 3150 3148 3144 3141 3137 3133 3130 3126 3122 3119 3116 3113 3111 3109 3107 3105
3183 3184 3184 3184 3183 3181 3180 3179 3178 3179 3178 3177 3175 3175 3172 3170 3168 3167 3165 3163 3164 3165 3166 3167 3167 3167 3166 3164 3162 3160 3157 3154 3152 3148 3145 3142 3139 3135 3132 3128 3124 3121 3116 3113 3110 3107 3104 3101 3099
3183 3185 3185 3183 3182 3182 3180 3178 3178 3179 3179 3177 3175 3174 3172 3170 3167 3166 3164 3164 3164 3165 3165 3166 3166 3165 3163 3162 3160 3157 3155 3152 3149 3145 3142 3140 3136 3132 3129 3125 3121 3117 3113 3110 3106 3103 3099 3096 3092
3183 3184 3184 3183 3183 3180 3179 3179 3178 3178 3177 3176 3175 3173 3172 3170 3168 3166 3164 3163 3164 3164 3164 3164 3164 3163 3161 3159 3157 3154 3151 3149 3146 3143 3140 3137 3133 3130 3126 3121 3117 3114 3109 3106 3102 3098 3094 3090 3087
3183 3184 3183 3182 3181 3178 3176 3176 3176 3176 3175 3175 3174 3172 3172 3169 3167 3166 3163 3162 3162 3162 3162 3161 3161 3160 3159 3157 3155 3153 3149 3147 3144 3141 3138 3134 3130 3126 3121 3116 3112 3108 3104 3100 3096 3092 3087 3083 3079
3181 3182 3182 3181 3179 3176 3175 3175 3174 3174 3173 3173 3172 3170 3170 3168 3167 3165 3163 3161 3160 3160 3159 3159 3158 3158 3157 3155 3153 3151 3147 3144 3141 3137 3134 3130 3127 3123 3118 3113 3108 3103 3099 3094 3090 3085 3081 3077 3073
3181 3182 3181 3179 3178 3175 3174 3173 3173 3171 3170 3171 3171 3169 3168 3167 3165 3163 3161 3159 3159 3158 3157 3157 3156 3155 3154 3153 3150 3148 3144 3140 3136 3133 3129 3125 3122 3118 3113 3109 3103 3098 3093 3088 3082 3078 3073 3069 3065
3179 3180 3179 3178 3176 3175 3173 3172 3171 3170 3170 3170 3170 3168 3167 3164 3163 3161 3159 3157 3157 3156 3155 3155 3154 3153 3151 3150 3148 3146 3142 3138 3135 3131 3126 3122 3118 3114 3108 3103 3098 3093 3088 3082 3077 3072 3067 3063 3059
3176 3176 3176 3177 3176 3174 3171 3172 3172 3171 3169 3170 3168 3167 3166 3164 3162 3160 3158 3156 3155 3154 3154 3153 3152 3150 3148 3147 3145 3143 3140 3136 3132 3127 3123 3118 3114 3109 3104 3098 3093 3087 3081 3075 3070 3065 3061 3056 3052
3175 3173 3174 3173 3173 3173 3172 3171 3171 3169 3167 3169 3166 3165 3164 3162 3161 3159 3157 3155 3154 3153 3151 3151 3150 3148 3146 3145 3144 3140 3136 3133 3129 3124 3119 3114 3109 3103 3098 3093 3087 3081 3075 3070 3064 3060 3055 3049 3044
3171 3171 3171 3170 3171 3170 3169 3170 3169 3167 3167 3166 3164 3163 3162 3161 3159 3157 3155 3153 3152 3150 3149 3148 3146 3145 3144 3141 3139 3136 3133 3129 3125 3120 3115 3109 3103 3098 3093 3087 3081 3076 3070 3065 3059 3054 3049 3044 3038
3168 3169 3169 3168 3168 3167 3167 3168 3167 3166 3164 3163 3161 3160 3160 3158 3157 3155 3154 3152 3150 3149 3147 3145 3144 3143 3141 3138 3135 3133 3129 3125 3120 3115 3110 3104 3099 3094 3088 3082 3076 3071 3066 3060 3054 3049 3045 3039 3034
3167 3167 3167 3166 3166 3165 3165 3165 3164 3164 3162 3159 3158 3157 3156 3155 3153 3152 3152 3151 3150 3148 3147 3145 3143 3141 3138 3135 3132 3129 3125 3120 3116 3111 3105 3100 3095 3088 3082 3076 3070 3065 3059 3053 3047 3042 3038 3033 3027
3165 3165 3164 3164 3164 3163 3162 3162 3160 3160 3159 3156 3155 3154 3153 3151 3149 3149 3149 3149 3148 3147 3145 3142 3141 3138 3136 3133 3128 3125 3120 3116 3112 3107 3102 3096 3089 3082 3076 3070 3064 3058 3053 3048 3041 3036 3032 3026 3021
3163 3164 3162 3161 3161 3160 3161 3158 3157 3157 3155 3153 3152 3151 3149 3147 3146 3144 3145 3146 3145 3143 3140 3139 3138 3136 3133 3129 3124 3119 3116 3112 3107 3102 3097 3091 3085 3077 3071 3064 3057 3052 3047 3041 3035 3030 3026 3021 3016
3161 3160 3159 3160 3159 3157 3156 3153 3152 3151 3151 3150 3149 3147 3144 3143 3141 3140 3140 3141 3140 3138 3136 3137 3135 3133 3130 3125 3119 3115 3111 3107 3102 3096 3092 3086 3080 3073 3066 3059 3053 3047 3041 3034 3029 3023 3019 3016 3010
3158 3158 3158 3156 3158 3155 3153 3148 3147 3146 3146 3147 3145 3143 3140 3138 3136 3135 3136 3136 3136 3135 3135 3135 3134 3130 3125 3120 3115 3110 3107 3102 3096 3091 3086 3079 3073 3066 3059 3053 3047 3042 3035 3029 3023 3018 3012 3008 3005
3156 3156 3155 3153 3154 3152 3148 3145 3144 3143 3143 3142 3141 3138 3136 3134 3132 3131 3131 3133 3134 3134 3133 3132 3130 3126 3122 3116 3111 3106 3102 3098 3093 3086 3080 3072 3065 3059 3054 3049 3043 3037 3030 3024 3018 3013 3008 3003 2999
3153 3152 3150 3150 3149 3146 3143 3141 3140 3140 3139 3138 3137 3134 3131 3129 3127 3126 3128 3131 3131 3131 3131 3130 3127 3124 3119 3113 3109 3105 3101 3096 3089 3082 3075 3068 3060 3054 3049 3043 3037 3031 3024 3019 3013 3008 3002 2997 2992
3149 3149 3148 3147 3144 3142 3140 3137 3137 3137 3136 3133 3133 3129 3126 3123 3122 3122 3127 3128 3128 3129 3129 3127 3123 3120 3115 3110 3106 3102 3097 3092 3085 3077 3070 3064 3057 3052 3045 3038 3032 3026 3020 3014 3009 3003 2997 2992 2988
3145 3145 3145 3144 3143 3141 3139 3134 3133 3134 3132 3130 3128 3124 3121 3119 3118 3119 3124 3124 3125 3126 3125 3123 3120 3117 3112 3106 3102 3098 3093 3088 3081 3073 3066 3060 3054 3049 3042 3036 3029 3022 3016 3010 3004 2998 2993 2989 2983
3143 3143 3143 3141 3140 3139 3139 3137 3129 3130 3128 3126 3122 3119 3117 3115 3115 3118 3121 3121 3124 3123 3121 3120 3118 3113 3108 3103 3100 3096 3091 3084 3077 3070 3062 3056 3051 3044 3038 3032 3025 3019 3013 3006 3000 2996 2991 2985 2978
3141 3141 3141 3139 3138 3136 3136 3135 3127 3127 3125 3124 3121 3118 3116 3114 3114 3116 3117 3119 3120 3119 3119 3118 3115 3109 3104 3101 3097 3092 3086 3080 3073 3066 3059 3053 3048 3041 3035 3029 3021 3016 3009 3003 2998 2992 2986 2980 2974
3139 3140 3138 3138 3137 3135 3133 3132 3128 3126 3124 3122 3120 3119 3116 3114 3112 3112 3113 3116 3117 3118 3118 3115 3111 3106 3102 3097 3093 3088 3082 3076 3069 3062 3056 3051 3045 3039 3032 3025 3020 3013 3006 3001 2995 2989 2982 2975 2970
3135 3137 3137 3139 3139 3133 3132 3128 3125 3124 3123 3121 3119 3117 3115 3113 3111 3111 3113 3116 3118 3118 3116 3111 3106 3102 3097 3093 3089 3084 3078 3071 3065 3059 3054 3048 3042 3035 3027 3022 3016 3010 3004 2998 2991 2984 2977 2971 2966
3133 3133 3135 3133 3132 3131 3129 3127 3126 3124 3122 3120 3118 3116 3114 3112 3111 3113 3116 3118 3118 3116 3112 3108 3102 3098 3093 3090 3085 3080 3074 3067 3061 3056 3051 3045 3039 3032 3025 3020 3013 3007 3002 2995 2987 2980 2973 2968 2963
3132 3133 3133 3132 3133 3132 3127 3126 3124 3123 3121 3119 3118 3115 3113 3112 3114 3117 3117 3117 3116 3112 3109 3104 3099 3095 3091 3087 3083 3077 3071 3065 3059 3054 3049 3043 3036 3029 3024 3017 3011 3006 3000 2992 2984 2977 2971 2966 2960
3132 3131 3131 3132 3132 3130 3132 3127 3125 3123 3121 3119 3117 3115 3114 3116 3117 3115 3115 3115 3112 3110 3106 3102 3097 3094 3089 3085 3080 3074 3067 3062 3058 3053 3047 3040 3034 3027 3022 3015 3010 3004 2997 2989 2981 2974 2969 2964 2958
3131 3131 3131 3130 3131 3129 3128 3126 3125 3123 3120 3118 3117 3117 3117 3116 3115 3116 3114 3113 3111 3108 3103 3099 3095 3091 3087 3082 3077 3071 3065 3061 3056 3051 3045 3039 3032 3026 3020 3013 3008 3002 2994 2986 2979 2973 2967 2962 2956
Wind_Speed
8 7 4 1 4 5 9 6 8 11 3 4 7 8 9 13 13 8 7 8 8 6 9 9 9 9 12 11 9 10 13 15 18 21 23 24 25 28 30 30 31 31 30 29 28 26 26 26 25
3 8 4 2 5 9 13 14 14 12 9 10 8 10 13 13 11 12 13 11 7 8 9 9 9 10 11 9 10 12 15 18 21 22 24 27 30 32 33 34 35 36 36 35 33 32 30 29 29
3 8 7 2 3 12 19 18 14 10 7 7 7 9 8 9 9 6 7 7 6 8 9 10 10 11 11 10 11 15 18 21 22 25 28 30 31 31 32 33 33 33 34 34 35 34 33 33 32
6 11 6 5 4 11 16 19 14 13 12 9 13 6 11 12 8 5 6 6 6 8 9 10 11 11 12 11 14 17 20 22 25 27 29 31 32 33 33 34 34 35 35 34 35 35 34 34 35
8 10 10 7 12 19 17 14 13 15 15 13 17 13 12 13 7 6 7 8 8 8 10 10 11 12 13 13 15 19 22 24 25 28 30 32 33 35 35 36 36 35 35 35 35 35 35 35 35
7 10 8 8 18 20 14 10 14 18 17 16 18 16 13 13 8 6 8 9 8 9 10 11 12 14 15 15 17 19 23 25 27 29 31 33 34 36 37 37 37 37 37 36 35 35 36 36 36
8 10 15 15 18 8 6 12 17 19 19 16 20 17 13 14 12 8 8 9 9 10 11 12 14 16 16 17 19 22 24 27 29 31 33 35 36 37 37 37 38 38 38 37 37 36 36 36 38
7 12 16 15 17 10 9 14 16 19 18 19 20 15 14 14 14 10 8 8 9 11 13 14 16 17 18 19 21 24 27 30 32 35 36 38 38 37 38 39 39 39 38 38 38 37 36 37 38
10 14 14 15 12 13 14 14 15 18 20 20 21 14 12 14 15 13 11 8 8 11 15 17 18 18 20 22 24 27 29 30 33 35 38 39 38 37 38 40 39 39 38 37 36 36 37 38 39
13 15 13 15 10 11 15 12 15 17 18 19 15 11 13 13 15 15 12 10 10 13 16 18 18 20 22 23 26 29 29 31 33 37 38 39 39 38 39 39 39 38 38 36 35 35 36 37 38
12 16 17 14 11 13 13 13 14 16 20 14 11 12 13 14 16 17 14 11 12 14 17 19 19 21 23 26 28 29 30 32 34 36 38 39 39 38 39 39 38 37 36 35 35 35 36 37 37
13 12 12 8 14 17 13 11 23 20 15 14 12 13 13 15 16 18 16 14 13 15 17 19 21 22 25 29 31 31 32 32 34 36 38 38 38 39 39 38 37 36 34 34 34 34 34 36 38
12 10 11 13 16 13 14 19 21 15 17 17 16 15 14 16 17 18 16 16 14 15 17 20 23 24 28 32 34 34 34 34 35 37 39 38 38 39 39 38 38 37 35 34 34 34 34 34 35
9 11 13 15 16 16 19 22 20 16 19 20 20 18 17 18 20 21 19 15 15 17 18 20 23 26 30 34 36 35 36 36 36 38 39 38 39 40 38 38 37 35 33 33 34 33 32 32 33
9 14 15 19 19 21 21 20 21 21 21 22 22 22 21 20 22 23 20 15 13 13 16 19 22 25 30 34 36 37 36 37 37 38 36 38 39 40 39 37 36 34 33 32 33 32 31 31 31
11 14 18 24 20 21 22 25 26 26 25 25 24 24 24 23 24 25 22 17 14 13 16 19 22 24 29 31 35 36 36 36 37 36 36 37 38 38 37 36 36 34 33 33 33 32 30 30 30
14 20 24 24 21 22 25 29 26 27 26 24 23 22 25 26 28 29 26 21 16 15 17 20 23 26 30 32 33 33 33 34 36 36 39 39 37 35 34 34 34 34 34 33 32 33 32 31 30
27 27 27 29 23 20 27 32 29 29 29 28 26 25 25 27 32 33 27 23 18 18 18 21 24 28 32 34 32 30 31 34 36 39 41 42 39 36 35 33 33 34 34 33 33 34 35 35 33
25 27 28 24 20 28 27 28 26 30 28 25 25 27 29 30 35 35 29 23 20 20 22 24 27 30 32 33 31 30 32 34 36 40 42 42 40 38 35 33 33 33 33 34 35 36 36 36 34
21 21 25 26 23 25 27 29 20 23 18 23 28 33 35 36 38 39 32 24 22 21 24 26 29 30 32 33 29 27 29 32 36 40 43 40 38 36 36 34 35 34 34 35 38 38 37 35 34
19 23 26 23 14 17 19 22 18 18 21 28 28 32 36 39 40 40 30 24 24 23 26 28 30 30 32 31 26 27 29 33 37 42 39 35 35 34 34 35 36 36 37 38 39 37 35 30 28
25 16 15 15 15 13 7 9 22 20 19 26 24 27 31 36 40 41 31 28 26 26 28 30 29 30 32 28 25 27 30 34 40 39 36 34 33 32 32 33 35 36 39 38 35 32 30 32 32
16 14 9 9 9 14 11 9 24 28 17 24 24 25 26 27 36 37 32 30 27 29 30 29 28 31 32 26 25 27 31 39 40 35 34 33 32 32 33 33 35 37 37 34 31 31 33 33 31
11 12 15 16 14 9 13 8 14 16 21 20 21 18 19 21 23 28 30 30 30 32 29 27 29 32 30 26 26 28 39 39 36 33 30 30 30 31 31 33 36 36 33 31 31 33 33 31 29
17 15 7 6 3 5 6 11 17 15 18 17 17 17 18 17 15 19 26 27 30 29 26 29 31 32 27 25 25 37 37 37 33 30 28 28 29 30 32 34 35 32 30 30 33 33 31 30 29
18 10 4 4 3 6 17 7 11 16 21 21 17 19 16 17 16 20 24 27 27 25 27 29 29 28 24 25 36 35 37 35 32 29 28 28 29 31 34 35 33 31 29 31 33 31 30 30 29
10 6 7 7 10 4 5 8 12 21 18 24 22 20 18 18 19 21 21 21 21 23 25 25 27 25 23 33 32 35 35 31 28 27 27 29 31 32 34 34 31 29 29 33 32 31 29 28 27
0 3 5 6 2 4 3 8 11 18 23 23 22 20 19 19 17 12 12 14 18 22 23 24 25 23 30 29 31 34 32 28 26 26 27 29 31 33 34 33 29 27 30 33 32 30 28 26 26
5 3 2 3 4 3 1 1 9 21 17 17 19 18 15 10 8 9 11 15 17 19 22 24 25 29 26 27 31 31 27 25 25 26 27 29 31 32 33 30 27 28 31 33 32 29 27 25 25
2 7 7 2 3 5 3 5 17 18 16 15 15 11 7 6 10 9 11 13 16 19 23 26 26 23 23 28 30 28 25 24 25 25 27 29 31 32 32 28 26 28 32 34 31 28 27 25 25
Wind_Direction
211 183 151 62 334 308 290 292 277 270 258 305 319 304 304 299 298 301 291 276 279 238 235 253 264 281 294 305 312 329 335 341 343 344 343 339 337 337 337 334 332 331 328 324 319 314 310 306 301
196 167 155 298 277 319 312 307 289 277 273 299 303 301 297 304 301 292 283 270 247 231 237 251 264 280 290 295 313 324 331 336 340 341 338 338 339 339 337 336 335 332 329 326 322 318 314 309 304
182 173 202 253 317 360 339 309 298 240 292 314 322 310 299 320 323 286 259 242 235 226 240 252 267 280 285 296 312 322 331 334 336 339 341 339 336 334 333 334 333 329 326 322 319 316 314 311 306
192 197 226 250 270 321 331 327 273 261 294 342 343 337 330 347 338 289 250 243 234 239 250 257 269 278 284 300 314 323 327 329 333 335 335 334 334 334 333 333 331 328 324 321 317 314 311 308 305
198 214 236 282 312 300 311 308 279 258 290 323 339 333 342 359 336 277 248 252 253 248 249 261 276 283 287 299 314 321 325 327 329 328 328 331 333 333 333 332 330 328 324 320 316 313 309 307 305
216 220 252 284 315 301 294 269 256 272 293 313 324 327 342 354 337 291 262 261 255 253 257 269 277 281 287 298 308 314 318 321 323 325 327 330 334 334 332 331 328 328 324 320 316 313 310 309 308
240 247 264 289 316 325 303 269 271 281 292 305 312 322 335 350 340 305 274 268 263 259 266 274 278 280 282 291 301 308 314 316 321 325 328 331 334 333 331 329 327 326 322 319 316 314 312 311 310
249 251 271 293 305 289 241 276 292 293 286 293 307 317 328 346 341 324 305 286 274 277 278 282 284 282 279 287 296 307 312 317 323 326 330 333 332 332 329 328 327 324 321 318 316 315 314 313 312
245 254 270 321 304 265 270 298 308 300 271 296 304 300 323 341 341 333 325 310 290 279 279 282 284 281 282 288 294 304 312 320 323 327 330 329 330 329 328 328 325 322 321 319 317 315 316 316 314
247 262 279 311 289 301 277 297 317 308 294 304 302 301 313 329 338 339 333 317 292 282 282 282 282 282 283 287 297 308 315 319 323 326 325 327 327 328 327 325 324 323 320 317 315 315 315 314 312
288 281 302 291 262 283 274 298 314 310 290 306 307 304 309 322 335 339 336 317 295 289 285 284 282 282 288 294 301 310 313 317 320 322 324 325 325 327 326 324 322 319 318 317 316 316 316 312 310
277 278 303 310 280 290 292 296 319 314 308 306 307 302 311 320 331 340 341 314 297 283 285 287 292 296 299 302 306 309 311 314 317 321 323 323 325 325 324 321 319 319 318 318 316 315 314 312 311
267 292 297 276 283 287 284 311 313 308 306 311 302 303 305 311 321 328 334 331 298 285 288 296 302 305 304 303 305 308 309 312 317 321 322 323 325 324 323 321 320 322 321 318 316 316 316 313 309
282 279 257 267 281 288 293 304 298 314 305 308 304 304 305 305 313 323 328 334 311 292 294 302 307 308 304 304 305 305 307 311 316 319 321 323 325 325 324 322 322 321 321 320 318 316 317 313 310
263 262 266 275 283 289 288 281 302 307 299 298 302 304 303 304 312 313 314 316 321 309 308 316 316 310 311 308 305 305 306 309 313 318 322 325 326 324 324 323 321 321 323 323 319 318 319 315 312
249 255 262 278 278 271 268 282 298 298 295 291 298 298 298 302 300 300 297 303 317 323 324 321 320 319 320 316 311 306 305 310 315 320 324 326 327 327 324 323 323 323 325 323 320 319 318 315 311
247 257 266 274 284 275 271 294 300 297 292 286 297 302 294 298 295 291 294 297 308 321 318 318 319 316 321 321 315 310 309 313 318 322 326 328 328 326 324 324 325 326 325 325 322 321 319 317 314
253 256 271 281 288 284 284 290 292 288 283 286 290 300 298 299 289 284 281 286 299 309 308 309 309 314 321 325 319 313 314 319 322 324 327 328 328 327 328 327 328 328 327 326 324 321 320 319 315
264 270 277 279 290 288 286 286 283 279 284 280 292 303 299 292 282 277 274 280 293 304 305 303 307 313 321 327 321 318 320 320 321 326 329 327 328 331 330 329 329 329 327 326 324 322 321 316 312
260 268 272 293 295 286 277 286 282 278 281 298 295 292 294 290 285 276 272 283 288 300 298 297 302 312 323 328 319 315 316 318 324 329 327 327 330 330 328 330 331 331 330 327 325 323 320 319 319
264 279 286 285 282 286 279 279 278 292 298 298 301 290 286 281 277 275 278 286 288 294 291 293 301 314 323 325 316 314 317 323 329 328 326 327 330 329 329 333 331 331 329 328 325 323 322 325 324
276 283 266 268 280 282 288 282 291 301 310 304 304 295 292 283 275 267 272 282 287 290 287 289 302 315 324 322 315 316 321 327 330 323 325 329 331 328 331 332 329 331 329 326 325 328 328 325 322
282 260 273 286 282 290 286 267 296 312 312 323 333 332 325 307 275 269 273 276 284 280 280 290 305 316 324 317 314 318 325 330 324 327 330 332 329 332 334 330 333 330 326 327 331 329 325 323 322
281 278 286 286 292 283 293 289 319 321 322 333 336 347 346 330 288 270 266 268 274 274 281 296 310 318 321 316 317 324 328 326 327 330 333 330 330 334 333 332 332 328 329 332 329 327 326 324 325
277 281 307 308 308 238 296 316 304 311 326 333 340 354 351 334 298 270 267 271 271 275 290 303 312 319 319 315 322 323 325 326 330 333 332 332 334 335 334 335 330 330 334 332 330 328 328 328 329
264 255 215 232 229 266 302 271 284 308 331 333 337 338 330 326 294 274 265 265 272 284 297 304 313 319 315 316 320 326 326 330 333 335 334 336 337 338 338 334 333 335 335 333 333 332 332 333 331
224 236 267 276 284 297 275 273 310 323 333 329 326 328 327 302 279 263 261 271 278 289 297 311 312 313 313 320 325 325 328 333 335 335 336 339 341 340 338 334 337 337 335 336 337 337 337 335 335
244 314 292 297 274 282 273 303 329 341 332 326 323 326 310 285 267 272 272 276 288 293 305 311 313 315 321 322 323 327 329 334 336 338 340 341 344 341 337 338 338 337 338 341 341 341 340 338 335
273 1 311 293 287 203 331 305 0 350 347 336 321 310 287 293 301 277 283 283 286 304 311 313 315 322 319 320 325 327 334 336 339 340 341 346 346 341 340 339 339 338 342 345 344 343 341 337 335
89 33 26 353 312 305 275 281 344 348 1 333 309 303 292 281 272 275 280 293 312 314 311 314 318 317 319 322 326 332 336 339 340 341 346 349 347 343 342 341 340 341 346 348 346 344 341 338 338